Location: Stull Observatory
(42.2506°N, 77.7903°W)
Time: 22:01:56
(UTC-04:00)

ISS - All Passes

Search period start: 14 September 2014 00:00
Search period end: 24 September 2014 00:00
Orbit: 414 x 417 km, 51.6° (Epoch: 14 September)

Date Brightness Start Highest point End Pass type
(mag) Time Alt. Az. Time Alt. Az. Time Alt. Az.
14 Sep - 04:54:01 10° SSW 04:56:54 28° SE 04:59:48 10° ENE visible
14 Sep - 06:30:22 10° W 06:33:32 40° NNW 06:36:43 10° NE daylight
14 Sep - 08:08:38 10° NW 08:10:55 17° N 08:13:13 10° NE daylight
14 Sep - 09:46:00 10° NW 09:48:33 20° NNE 09:51:06 10° ENE daylight
14 Sep - 11:22:25 10° NW 11:25:45 69° NNE 11:29:03 10° ESE daylight
14 Sep - 13:00:09 10° W 13:02:06 15° SW 13:04:03 10° SSW daylight
15 Sep - 04:06:14 10° S 04:08:24 16° SE 04:10:35 10° E visible
15 Sep - 05:41:30 10° WSW 05:44:48 63° NNW 05:48:07 10° NE visible
15 Sep - 07:19:31 10° WNW 07:22:01 19° NNW 07:24:31 10° NE daylight
15 Sep - 08:57:19 10° NW 08:59:39 17° N 09:01:58 10° NE daylight
15 Sep - 10:33:47 10° NW 10:37:00 43° NNE 10:40:12 10° ESE daylight
15 Sep - 12:10:47 10° WNW 12:13:35 25° SW 12:16:22 10° SSE daylight
16 Sep - 04:52:41 10° SW 04:56:00 78° SE 04:59:21 10° ENE visible
16 Sep - 06:30:16 10° WNW 06:33:01 23° NNW 06:35:47 10° NE daylight
16 Sep - 08:08:24 10° NW 08:10:36 16° N 08:12:48 10° NE daylight
16 Sep - 09:45:04 10° NW 09:48:05 30° NNE 09:51:05 10° E daylight
16 Sep - 11:21:41 10° WNW 11:24:53 43° SW 11:28:03 10° SSE daylight
17 Sep - 04:03:59 10° SSW 04:07:10 43° SE 04:10:21 10° ENE visible
17 Sep - 05:40:57 10° W 05:43:57 30° NNW 05:46:58 10° NE visible
17 Sep - 07:19:14 10° NW 07:21:26 16° N 07:23:38 10° NE daylight
17 Sep - 08:56:14 10° NW 08:59:00 23° NNE 09:01:45 10° ENE daylight
17 Sep - 10:32:40 10° WNW 10:36:00 78° SW 10:39:19 10° SE daylight
18 Sep - 03:15:29 10° SSW 03:18:16 25° SE 03:21:04 10° ENE visible
18 Sep - 04:51:37 10° WSW 04:54:49 43° NNW 04:58:02 10° NE visible
18 Sep - 06:29:49 10° NW 06:32:09 17° N 06:34:29 10° NE daylight
18 Sep - 08:07:15 10° NW 08:09:45 19° NNE 08:12:15 10° ENE daylight
18 Sep - 09:43:38 10° NW 09:46:57 62° NNE 09:50:15 10° ESE daylight
18 Sep - 11:21:08 10° W 11:23:19 17° SW 11:25:30 10° S daylight
19 Sep - 02:27:24 10° SSE 02:29:19 15° SE 02:31:14 10° E night (unlit)
19 Sep - 04:02:19 10° WSW 04:05:38 70° NNW 04:08:57 10° NE visible
19 Sep - 05:40:13 10° WNW 05:42:46 20° NNW 05:45:20 10° NE visible
19 Sep - 07:18:04 10° NW 07:20:22 17° N 07:22:39 10° NE daylight
19 Sep - 08:54:33 10° NW 08:57:43 40° NNE 09:00:52 10° E daylight
19 Sep - 10:31:24 10° WNW 10:34:19 28° SW 10:37:13 10° SSE daylight
20 Sep - 03:13:05 10° SW 03:16:22 68° SE 03:19:41 10° ENE visible
20 Sep - 04:50:30 10° WNW 04:53:18 25° NNW 04:56:08 10° NE visible
20 Sep - 06:28:39 10° NW 06:30:50 16° N 06:33:01 10° NE visible
20 Sep - 08:05:22 10° NW 08:08:19 28° NNE 08:11:15 10° E daylight
20 Sep - 09:41:53 10° WNW 09:45:08 50° SW 09:48:21 10° SE daylight
21 Sep - 02:23:59 10° SSW 02:27:04 37° SE 02:30:11 10° ENE night (unlit)
21 Sep - 04:00:43 10° W 04:03:46 33° NNW 04:06:50 10° NE visible
21 Sep - 05:38:58 10° NW 05:41:11 16° N 05:43:24 10° NE visible
21 Sep - 07:16:03 10° NW 07:18:44 22° NNE 07:21:25 10° ENE daylight
21 Sep - 08:52:25 10° NW 08:55:46 89° SW 08:59:05 10° SE daylight
21 Sep - 10:31:03 10° WSW 10:31:56 11° SW 10:32:50 10° SW daylight
22 Sep - 01:35:07 10° S 01:37:43 22° SE 01:40:20 10° E night (unlit)
22 Sep - 03:10:57 10° WSW 03:14:11 49° NNW 03:17:26 10° NE visible
22 Sep - 04:49:03 10° NW 04:51:26 18° N 04:53:49 10° NE visible
22 Sep - 06:26:34 10° NW 06:29:00 18° N 06:31:26 10° ENE visible
22 Sep - 08:02:56 10° NW 08:06:13 54° NNE 08:09:29 10° ESE daylight
22 Sep - 09:40:10 10° W 09:42:37 19° SW 09:45:04 10° S daylight
23 Sep - 00:46:53 10° SSE 00:48:19 12° SE 00:49:45 10° ESE night (unlit)
23 Sep - 02:21:13 10° WSW 02:24:31 81° NW 02:27:52 10° NE night (unlit)
23 Sep - 03:58:58 10° WNW 04:01:35 21° NNW 04:04:12 10° NE visible
23 Sep - 05:36:53 10° NW 05:39:08 17° N 05:41:22 10° NE visible
23 Sep - 07:13:23 10° NW 07:16:30 35° NNE 07:19:36 10° E daylight
23 Sep - 08:50:05 10° WNW 08:53:08 33° SW 08:56:09 10° SSE daylight
